WZZ3588 LHBP-EGKK

Flight info

Callsign WZZ3588
Flight time N/A
Altitude 34000
Route BADOV DCT MAVOR DCT KATQA DCT RAPET DCT MASEK DCT TIVUN DCT BREDA DCT GALSO Q63 ARREK Y4 TEBRA
Aircraft A21N/M-SDE1E2E3FGIJ1J4RWXY/LB1

Departure

Time 2026-05-08 07:05
Airport Budapest Liszt Ferenc International Airport (LHBP)

Arrival

Time N/A
Airport London Gatwick Airport (EGKK)
Time Latitude Longitude Altitude Speed Heading
2026-05-08 06:36 47.43359 19.25561 463 ft 0 kts 312°
2026-05-08 06:56 47.43356 19.25565 462 ft 3 kts 311°
2026-05-08 06:56 47.43345 19.25589 463 ft 3 kts 287°
2026-05-08 06:57 47.43344 19.25617 460 ft 3 kts 251°
2026-05-08 06:57 47.43354 19.25642 463 ft 3 kts 227°
2026-05-08 06:57 47.43365 19.25658 463 ft 0 kts 222°
2026-05-08 07:00 47.43361 19.25654 463 ft 2 kts 222°
2026-05-08 07:01 47.43349 19.25637 461 ft 3 kts 222°
2026-05-08 07:01 47.43330 19.25611 463 ft 4 kts 222°
2026-05-08 07:01 47.43306 19.25580 461 ft 5 kts 223°
2026-05-08 07:01 47.43295 19.25526 463 ft 7 kts 283°
2026-05-08 07:02 47.43324 19.25464 461 ft 8 kts 311°
2026-05-08 07:02 47.43337 19.25382 460 ft 10 kts 234°
2026-05-08 07:02 47.43284 19.25308 463 ft 11 kts 222°
2026-05-08 07:02 47.43233 19.25238 461 ft 10 kts 222°
2026-05-08 07:03 47.43176 19.25162 462 ft 12 kts 222°
2026-05-08 07:03 47.43110 19.25073 461 ft 13 kts 222°
2026-05-08 07:03 47.43066 19.25012 461 ft 4 kts 234°
2026-05-08 07:03 47.43080 19.24972 461 ft 5 kts 314°
2026-05-08 07:04 47.43086 19.24963 463 ft 0 kts 313°
2026-05-08 07:04 47.43091 19.24954 460 ft 11 kts 313°
2026-05-08 07:04 47.43330 19.24569 458 ft 89 kts 313°
2026-05-08 07:04 47.43915 19.23627 462 ft 156 kts 312°
2026-05-08 07:05 47.44699 19.22373 891 ft 167 kts 313°
2026-05-08 07:05 47.45480 19.21087 1555 ft 170 kts 311°
2026-05-08 07:05 47.46306 19.19720 2014 ft 187 kts 312°
2026-05-08 07:05 47.47215 19.18249 2538 ft 201 kts 312°
2026-05-08 07:06 47.48187 19.16678 3101 ft 214 kts 313°
2026-05-08 07:06 47.49339 19.15170 3553 ft 233 kts 320°
2026-05-08 07:06 47.50655 19.13593 4014 ft 253 kts 320°
2026-05-08 07:06 47.52047 19.11921 4710 ft 262 kts 321°
2026-05-08 07:07 47.53466 19.10214 5596 ft 262 kts 321°
2026-05-08 07:07 47.54889 19.08497 6429 ft 266 kts 321°
2026-05-08 07:07 47.56354 19.06812 7230 ft 268 kts 329°
2026-05-08 07:07 47.58106 19.05875 8000 ft 272 kts 352°
2026-05-08 07:08 47.60004 19.06067 8741 ft 278 kts 13°
2026-05-08 07:08 47.61883 19.06981 9515 ft 283 kts 18°
2026-05-08 07:08 47.63745 19.08006 10222 ft 289 kts 18°
2026-05-08 07:08 47.65684 19.09050 10585 ft 306 kts 17°
2026-05-08 07:09 47.67747 19.10123 10914 ft 322 kts 17°
2026-05-08 07:09 47.69902 19.11222 11476 ft 330 kts 17°
2026-05-08 07:09 47.72058 19.12322 12147 ft 334 kts 16°
2026-05-08 07:09 47.74270 19.13445 12851 ft 338 kts 16°
2026-05-08 07:10 47.76524 19.14496 13546 ft 341 kts 10°
2026-05-08 07:10 47.78879 19.14774 14179 ft 340 kts 352°
2026-05-08 07:10 47.81154 19.13938 14815 ft 337 kts 334°
2026-05-08 07:10 47.83111 19.12068 15457 ft 336 kts 316°
2026-05-08 07:11 47.84767 19.09596 16118 ft 338 kts 312°
2026-05-08 07:11 47.86402 19.07064 16785 ft 340 kts 312°
2026-05-08 07:11 47.88061 19.04477 17449 ft 342 kts 312°
2026-05-08 07:11 47.89697 19.01923 18088 ft 346 kts 312°
2026-05-08 07:12 47.91364 18.99321 18677 ft 348 kts 312°
2026-05-08 07:12 47.93044 18.96698 19212 ft 351 kts 311°
2026-05-08 07:12 47.94740 18.94054 19789 ft 354 kts 311°
2026-05-08 07:12 47.96448 18.91384 20297 ft 358 kts 311°
2026-05-08 07:13 47.98175 18.88682 20820 ft 361 kts 311°
2026-05-08 07:13 47.99915 18.85952 21345 ft 365 kts 311°
2026-05-08 07:13 48.01673 18.83191 21881 ft 368 kts 311°
2026-05-08 07:13 48.03442 18.80415 22395 ft 371 kts 311°
2026-05-08 07:14 48.05222 18.77609 22902 ft 374 kts 311°
2026-05-08 07:14 48.07017 18.74772 23398 ft 377 kts 311°
2026-05-08 07:14 48.08822 18.71925 23844 ft 380 kts 311°
2026-05-08 07:14 48.10648 18.69050 24278 ft 381 kts 310°
2026-05-08 07:15 48.12474 18.66165 24710 ft 383 kts 310°
2026-05-08 07:15 48.14318 18.63263 25151 ft 385 kts 310°
2026-05-08 07:15 48.16163 18.60347 25574 ft 386 kts 310°
2026-05-08 07:15 48.17982 18.57453 25982 ft 388 kts 310°
2026-05-08 07:16 48.19854 18.54470 26391 ft 390 kts 309°
2026-05-08 07:16 48.21716 18.51505 26790 ft 391 kts 309°
2026-05-08 07:16 48.23564 18.48562 27180 ft 393 kts 309°
2026-05-08 07:16 48.25446 18.45574 27591 ft 395 kts 309°
2026-05-08 07:17 48.27333 18.42568 27967 ft 397 kts 309°
2026-05-08 07:17 48.29229 18.39546 28339 ft 399 kts 309°
2026-05-08 07:17 48.31165 18.36469 28716 ft 400 kts 309°
2026-05-08 07:17 48.33049 18.33470 29068 ft 402 kts 309°
2026-05-08 07:18 48.34973 18.30403 29425 ft 403 kts 309°
2026-05-08 07:18 48.36893 18.27327 29778 ft 405 kts 309°
2026-05-08 07:18 48.38825 18.24225 30113 ft 406 kts 309°
2026-05-08 07:18 48.40763 18.21113 30385 ft 408 kts 309°
2026-05-08 07:19 48.42708 18.17980 30655 ft 410 kts 308°
2026-05-08 07:19 48.44658 18.14839 30906 ft 412 kts 308°
2026-05-08 07:19 48.46621 18.11677 31183 ft 412 kts 308°
2026-05-08 07:19 48.48578 18.08524 31519 ft 412 kts 308°
2026-05-08 07:20 48.50523 18.05369 31829 ft 410 kts 308°
2026-05-08 07:20 48.52465 18.02216 32144 ft 410 kts 308°
2026-05-08 07:20 48.54405 17.99077 32451 ft 409 kts 308°
2026-05-08 07:20 48.56345 17.95942 32761 ft 409 kts 308°
2026-05-08 07:21 48.58281 17.92798 33030 ft 409 kts 308°
2026-05-08 07:21 48.60219 17.89644 33300 ft 409 kts 308°
2026-05-08 07:21 48.62157 17.86493 33572 ft 408 kts 308°
2026-05-08 07:21 48.64083 17.83354 33845 ft 407 kts 308°
2026-05-08 07:22 48.66002 17.80209 34057 ft 407 kts 308°
2026-05-08 07:22 48.67933 17.77061 34104 ft 409 kts 308°
2026-05-08 07:22 48.71814 17.70675 34077 ft 415 kts 308°
2026-05-08 07:23 48.75732 17.64269 34069 ft 415 kts 308°
2026-05-08 07:23 48.79648 17.57857 34071 ft 414 kts 308°
2026-05-08 07:24 48.83634 17.51533 34073 ft 416 kts 310°
2026-05-08 07:24 48.87783 17.45381 34090 ft 418 kts 311°
2026-05-08 07:25 48.91941 17.39199 34090 ft 419 kts 311°
2026-05-08 07:26 48.98178 17.29888 34083 ft 419 kts 311°
2026-05-08 07:26 49.02016 17.23308 34080 ft 412 kts 298°
2026-05-08 07:27 49.04376 17.15454 34078 ft 407 kts 289°
2026-05-08 07:27 49.06104 17.08767 34077 ft 407 kts 289°
2026-05-08 07:28 49.08197 17.00752 34073 ft 408 kts 289°
2026-05-08 07:28 49.10312 16.92698 34075 ft 409 kts 289°
2026-05-08 07:29 49.12430 16.84643 34084 ft 409 kts 289°
2026-05-08 07:29 49.14536 16.76584 34085 ft 409 kts 289°
2026-05-08 07:30 49.16634 16.68497 34081 ft 409 kts 289°
2026-05-08 07:30 49.18725 16.60418 34083 ft 409 kts 289°
2026-05-08 07:31 49.20812 16.52345 34094 ft 408 kts 289°
2026-05-08 07:31 49.22890 16.44268 34082 ft 408 kts 289°
2026-05-08 07:32 49.24951 16.36197 34076 ft 408 kts 289°
2026-05-08 07:32 49.27009 16.28094 34080 ft 410 kts 289°
2026-05-08 07:33 49.29084 16.19936 34085 ft 411 kts 289°
2026-05-08 07:33 49.31156 16.11770 34087 ft 412 kts 289°
2026-05-08 07:34 49.33220 16.03582 34087 ft 412 kts 289°
2026-05-08 07:34 49.35292 15.95383 34082 ft 412 kts 289°
2026-05-08 07:35 49.37352 15.87190 34088 ft 412 kts 289°
2026-05-08 07:35 49.39406 15.78975 34090 ft 411 kts 289°
2026-05-08 07:36 49.41464 15.70767 34092 ft 412 kts 289°
2026-05-08 07:36 49.43506 15.62559 34093 ft 412 kts 289°
2026-05-08 07:37 49.45544 15.54324 34101 ft 412 kts 289°
2026-05-08 07:37 49.47566 15.46082 34100 ft 412 kts 288°
2026-05-08 07:38 49.49575 15.37842 34094 ft 412 kts 289°
2026-05-08 07:38 49.51592 15.29591 34099 ft 411 kts 289°
2026-05-08 07:39 49.53604 15.21348 34106 ft 412 kts 289°
2026-05-08 07:39 49.55601 15.13094 34104 ft 411 kts 288°
2026-05-08 07:40 49.57596 15.04821 34105 ft 411 kts 288°
2026-05-08 07:40 49.59592 14.96569 34111 ft 411 kts 289°
2026-05-08 07:41 49.61595 14.88304 34114 ft 411 kts 288°
2026-05-08 07:41 49.63568 14.80022 34106 ft 411 kts 288°
2026-05-08 07:42 49.65533 14.71734 34111 ft 411 kts 288°
2026-05-08 07:42 49.67483 14.63442 34108 ft 411 kts 288°
2026-05-08 07:43 49.69447 14.55156 34113 ft 411 kts 288°
2026-05-08 07:43 49.71419 14.46851 34119 ft 411 kts 288°
2026-05-08 07:44 49.73380 14.38540 34118 ft 411 kts 288°
2026-05-08 07:44 49.75327 14.30218 34112 ft 411 kts 288°
2026-05-08 07:45 49.77250 14.21961 34129 ft 412 kts 288°
2026-05-08 07:45 49.79189 14.13586 34117 ft 414 kts 288°
2026-05-08 07:46 49.81111 14.05190 34112 ft 414 kts 288°
2026-05-08 07:46 49.83057 13.96757 34110 ft 413 kts 288°
2026-05-08 07:47 49.84981 13.88401 34109 ft 413 kts 288°
2026-05-08 07:47 49.86886 13.80021 34108 ft 413 kts 288°
2026-05-08 07:48 49.88796 13.71611 34106 ft 413 kts 288°
2026-05-08 07:48 49.90692 13.63189 34113 ft 414 kts 288°
2026-05-08 07:49 49.92589 13.54743 34105 ft 414 kts 288°
2026-05-08 07:49 49.94500 13.46303 34108 ft 414 kts 288°
2026-05-08 07:50 49.96392 13.37869 34110 ft 414 kts 288°
2026-05-08 07:50 49.98285 13.29405 34112 ft 415 kts 288°
2026-05-08 07:51 50.00159 13.20956 34106 ft 414 kts 287°
2026-05-08 07:51 50.01970 13.12748 34103 ft 414 kts 287°
2026-05-08 07:52 50.03839 13.04217 34128 ft 414 kts 287°
2026-05-08 07:52 50.05705 12.95718 34135 ft 414 kts 287°
2026-05-08 07:53 50.07550 12.87287 34141 ft 414 kts 287°
2026-05-08 07:53 50.09393 12.78793 34136 ft 414 kts 287°
2026-05-08 07:54 50.11236 12.70299 34131 ft 414 kts 287°
2026-05-08 07:54 50.13069 12.61809 34130 ft 413 kts 287°
2026-05-08 07:55 50.14886 12.53306 34128 ft 413 kts 287°
2026-05-08 07:55 50.16696 12.44793 34123 ft 414 kts 287°
2026-05-08 07:56 50.18515 12.36295 34120 ft 413 kts 287°
2026-05-08 07:56 50.20308 12.27788 34124 ft 413 kts 286°
2026-05-08 07:57 50.22054 12.19431 34128 ft 413 kts 287°
2026-05-08 07:57 50.23843 12.10917 34135 ft 412 kts 287°
2026-05-08 07:58 50.25611 12.02396 34158 ft 413 kts 286°
2026-05-08 07:58 50.27367 11.93851 34143 ft 414 kts 287°
2026-05-08 07:59 50.29131 11.85313 34139 ft 414 kts 287°
2026-05-08 07:59 50.30907 11.76740 34143 ft 414 kts 286°
2026-05-08 08:00 50.32651 11.68162 34138 ft 413 kts 286°
2026-05-08 08:00 50.34384 11.59593 34145 ft 413 kts 286°
2026-05-08 08:01 50.36131 11.51005 34141 ft 414 kts 286°
2026-05-08 08:01 50.37867 11.42398 34134 ft 414 kts 286°
2026-05-08 08:02 50.39602 11.33804 34134 ft 414 kts 286°
2026-05-08 08:02 50.41324 11.25190 34136 ft 414 kts 286°
2026-05-08 08:03 50.43035 11.16571 34137 ft 414 kts 286°
2026-05-08 08:03 50.44750 11.07945 34135 ft 414 kts 286°
2026-05-08 08:04 50.46448 10.99295 34133 ft 415 kts 285°
2026-05-08 08:04 50.48152 10.90648 34135 ft 415 kts 285°
2026-05-08 08:05 50.49846 10.81989 34132 ft 415 kts 285°
2026-05-08 08:05 50.51528 10.73328 34135 ft 415 kts 285°
2026-05-08 08:06 50.53210 10.64651 34142 ft 415 kts 285°
2026-05-08 08:06 50.54888 10.55962 34137 ft 415 kts 285°
2026-05-08 08:07 50.56557 10.47269 34134 ft 415 kts 285°
2026-05-08 08:07 50.58206 10.38619 34137 ft 415 kts 285°
2026-05-08 08:08 50.59855 10.29928 34139 ft 414 kts 285°
2026-05-08 08:08 50.61499 10.21234 34143 ft 416 kts 285°
2026-05-08 08:09 50.63152 10.12486 34139 ft 416 kts 285°
2026-05-08 08:09 50.64789 10.03746 34141 ft 416 kts 285°
2026-05-08 08:10 50.66421 9.94987 34131 ft 416 kts 285°
2026-05-08 08:10 50.68052 9.86226 34139 ft 416 kts 285°
2026-05-08 08:11 50.69676 9.77466 34141 ft 417 kts 285°
2026-05-08 08:11 50.71295 9.68677 34141 ft 417 kts 284°
2026-05-08 08:12 50.72863 9.59886 34140 ft 416 kts 282°
2026-05-08 08:12 50.73855 9.52408 34147 ft 415 kts 280°
2026-05-08 08:13 50.74996 9.43463 34138 ft 415 kts 280°
2026-05-08 08:13 50.76135 9.34531 34141 ft 416 kts 280°
2026-05-08 08:14 50.77267 9.25574 34136 ft 416 kts 280°
2026-05-08 08:14 50.78388 9.16615 34144 ft 416 kts 280°
2026-05-08 08:15 50.79498 9.07658 34148 ft 416 kts 279°
2026-05-08 08:15 50.80601 8.98681 34147 ft 416 kts 279°
2026-05-08 08:16 50.81704 8.89713 34140 ft 416 kts 279°
2026-05-08 08:16 50.82794 8.80736 34159 ft 416 kts 279°
2026-05-08 08:17 50.83878 8.71758 34151 ft 416 kts 279°
2026-05-08 08:17 50.84960 8.62779 34145 ft 415 kts 279°
2026-05-08 08:18 50.86031 8.53801 34144 ft 415 kts 279°
2026-05-08 08:18 50.87095 8.44835 34151 ft 415 kts 279°
2026-05-08 08:19 50.88150 8.35852 34154 ft 415 kts 279°
2026-05-08 08:19 50.89196 8.26861 34150 ft 415 kts 279°
2026-05-08 08:20 50.90245 8.17871 34147 ft 415 kts 279°
2026-05-08 08:20 50.91282 8.08936 34142 ft 415 kts 279°
2026-05-08 08:21 50.92315 7.99941 34143 ft 415 kts 279°
2026-05-08 08:21 50.93985 7.91157 34135 ft 417 kts 287°
2026-05-08 08:22 50.95872 7.82638 34151 ft 417 kts 287°
2026-05-08 08:22 50.97785 7.73945 34144 ft 417 kts 287°
2026-05-08 08:23 50.99670 7.65251 34127 ft 416 kts 287°
2026-05-08 08:23 51.01542 7.56550 34154 ft 416 kts 287°
2026-05-08 08:24 51.03408 7.47836 34136 ft 416 kts 287°
2026-05-08 08:24 51.05271 7.39120 34139 ft 416 kts 286°
2026-05-08 08:25 51.07126 7.30402 34141 ft 416 kts 286°
2026-05-08 08:25 51.08973 7.21673 34140 ft 416 kts 286°
2026-05-08 08:26 51.10815 7.12940 34153 ft 416 kts 286°
2026-05-08 08:26 51.12652 7.04189 34147 ft 417 kts 286°
2026-05-08 08:27 51.14438 6.95642 34140 ft 418 kts 286°
2026-05-08 08:27 51.16244 6.86954 34141 ft 419 kts 286°
2026-05-08 08:28 51.18066 6.78163 34141 ft 420 kts 286°
2026-05-08 08:28 51.19891 6.69325 34143 ft 420 kts 286°
2026-05-08 08:29 51.21716 6.60440 34142 ft 420 kts 285°
2026-05-08 08:29 51.23401 6.52169 34144 ft 420 kts 285°
2026-05-08 08:30 51.25216 6.43264 34142 ft 420 kts 285°
2026-05-08 08:30 51.27900 6.30006 34139 ft 420 kts 285°
2026-05-08 08:31 51.29691 6.21128 34136 ft 420 kts 285°
2026-05-08 08:31 51.31471 6.12243 34135 ft 421 kts 285°
2026-05-08 08:32 51.33249 6.03332 34130 ft 421 kts 285°
2026-05-08 08:32 51.35022 5.94412 34129 ft 421 kts 285°
2026-05-08 08:33 51.36777 5.85500 34130 ft 420 kts 285°
2026-05-08 08:33 51.38520 5.76569 34132 ft 420 kts 285°
2026-05-08 08:34 51.40266 5.67626 34134 ft 421 kts 285°
2026-05-08 08:34 51.42009 5.58672 34142 ft 421 kts 284°
2026-05-08 08:35 51.43746 5.49704 34142 ft 421 kts 284°
2026-05-08 08:35 51.45475 5.40744 34149 ft 422 kts 285°
2026-05-08 08:36 51.47211 5.31765 34142 ft 421 kts 285°
2026-05-08 08:36 51.48932 5.22762 34145 ft 423 kts 285°
2026-05-08 08:37 51.50671 5.13717 34138 ft 423 kts 284°
2026-05-08 08:37 51.52374 5.04668 34142 ft 423 kts 284°
2026-05-08 08:38 51.54072 4.95611 34141 ft 423 kts 284°
2026-05-08 08:38 51.55758 4.86558 34141 ft 423 kts 283°
2026-05-08 08:39 51.56897 4.77313 34142 ft 422 kts 277°
2026-05-08 08:39 51.57894 4.68018 34119 ft 422 kts 278°
2026-05-08 08:40 51.58898 4.58793 34119 ft 422 kts 278°
2026-05-08 08:40 51.59908 4.49488 34116 ft 423 kts 277°
2026-05-08 08:41 51.60908 4.40165 34114 ft 423 kts 277°
2026-05-08 08:41 51.61893 4.30818 34115 ft 424 kts 277°
2026-05-08 08:42 51.62872 4.21454 34116 ft 424 kts 277°
2026-05-08 08:42 51.63843 4.12112 34116 ft 423 kts 277°
2026-05-08 08:43 51.64814 4.02763 34122 ft 423 kts 277°
2026-05-08 08:43 51.65769 3.93409 34122 ft 423 kts 277°
2026-05-08 08:44 51.66718 3.84051 34132 ft 424 kts 277°
2026-05-08 08:44 51.67664 3.74661 34128 ft 424 kts 277°
2026-05-08 08:45 51.68600 3.65286 34126 ft 424 kts 277°
2026-05-08 08:45 51.69526 3.55904 34128 ft 424 kts 277°
2026-05-08 08:46 51.70441 3.46535 34132 ft 423 kts 277°
2026-05-08 08:46 51.71352 3.37147 34141 ft 424 kts 277°
2026-05-08 08:47 51.72265 3.27748 34128 ft 424 kts 277°
2026-05-08 08:47 51.73090 3.18331 34124 ft 422 kts 271°
2026-05-08 08:48 51.72629 3.09129 34125 ft 412 kts 260°
2026-05-08 08:48 51.71785 2.99897 34032 ft 416 kts 260°
2026-05-08 08:49 51.71381 2.95339 33705 ft 405 kts 260°
2026-05-08 08:49 51.70989 2.90881 33303 ft 398 kts 260°
2026-05-08 08:49 51.70601 2.86486 32825 ft 394 kts 261°
2026-05-08 08:49 51.70216 2.82132 32279 ft 391 kts 260°
2026-05-08 08:50 51.69829 2.77788 31736 ft 388 kts 260°
2026-05-08 08:50 51.69448 2.73498 31219 ft 386 kts 260°
2026-05-08 08:50 51.69065 2.69224 30706 ft 384 kts 260°
2026-05-08 08:50 51.68685 2.64988 30229 ft 381 kts 260°
2026-05-08 08:51 51.68310 2.60777 29638 ft 379 kts 260°
2026-05-08 08:51 51.67935 2.56598 29087 ft 376 kts 260°
2026-05-08 08:51 51.67560 2.52432 28580 ft 372 kts 260°
2026-05-08 08:51 51.67189 2.48324 28101 ft 369 kts 260°
2026-05-08 08:52 51.66819 2.44253 27623 ft 366 kts 260°
2026-05-08 08:52 51.66447 2.40210 27139 ft 364 kts 260°
2026-05-08 08:52 51.66078 2.36200 26646 ft 361 kts 260°
2026-05-08 08:52 51.65710 2.32211 26162 ft 359 kts 260°
2026-05-08 08:53 51.65346 2.28290 25701 ft 358 kts 260°
2026-05-08 08:53 51.64981 2.24345 25245 ft 355 kts 260°
2026-05-08 08:53 51.64615 2.20413 24777 ft 354 kts 260°
2026-05-08 08:53 51.64250 2.16499 24297 ft 353 kts 260°
2026-05-08 08:54 51.63882 2.12593 23830 ft 352 kts 260°
2026-05-08 08:54 51.63517 2.08704 23322 ft 351 kts 260°
2026-05-08 08:54 51.63159 2.04826 22825 ft 349 kts 260°
2026-05-08 08:54 51.62806 2.00985 22340 ft 346 kts 260°
2026-05-08 08:55 51.62452 1.97158 21857 ft 344 kts 260°
2026-05-08 08:55 51.62102 1.93369 21393 ft 342 kts 260°
2026-05-08 08:55 51.61749 1.89592 20938 ft 340 kts 260°
2026-05-08 08:55 51.61366 1.85853 20478 ft 337 kts 255°
2026-05-08 08:56 51.60519 1.82393 20045 ft 331 kts 236°
2026-05-08 08:56 51.59106 1.79509 19633 ft 327 kts 227°
2026-05-08 08:56 51.57580 1.76806 19222 ft 325 kts 226°
2026-05-08 08:56 51.56060 1.74116 18810 ft 324 kts 227°
2026-05-08 08:57 51.54558 1.71423 18407 ft 323 kts 227°
2026-05-08 08:57 51.53060 1.68736 17968 ft 322 kts 227°
2026-05-08 08:57 51.51577 1.66068 17556 ft 320 kts 227°
2026-05-08 08:57 51.50101 1.63403 17153 ft 318 kts 227°
2026-05-08 08:58 51.48776 1.60575 16758 ft 318 kts 241°
2026-05-08 08:58 51.48177 1.58436 16499 ft 318 kts 248°
2026-05-08 08:58 51.47421 1.55104 16131 ft 317 kts 249°
2026-05-08 08:58 51.46686 1.51774 15772 ft 316 kts 249°
2026-05-08 08:59 51.45940 1.48457 15421 ft 316 kts 249°
2026-05-08 08:59 51.45189 1.45155 15055 ft 316 kts 249°
2026-05-08 08:59 51.44431 1.41844 14670 ft 317 kts 249°
2026-05-08 08:59 51.43585 1.38583 14277 ft 316 kts 240°
2026-05-08 09:00 51.42195 1.35904 13943 ft 313 kts 220°
2026-05-08 09:00 51.40483 1.33814 13640 ft 306 kts 216°
2026-05-08 09:00 51.38775 1.31850 13359 ft 299 kts 216°
2026-05-08 09:00 51.37092 1.29904 13161 ft 298 kts 216°
2026-05-08 09:01 51.35419 1.27956 12974 ft 297 kts 217°
2026-05-08 09:01 51.33756 1.26005 12798 ft 297 kts 217°
2026-05-08 09:01 51.32089 1.24047 12621 ft 296 kts 216°
2026-05-08 09:01 51.30430 1.22094 12455 ft 295 kts 217°
2026-05-08 09:02 51.29024 1.19754 12282 ft 294 kts 237°
2026-05-08 09:02 51.28146 1.16801 12198 ft 294 kts 248°
2026-05-08 09:02 51.27428 1.13741 12115 ft 295 kts 249°
2026-05-08 09:02 51.26708 1.10676 12042 ft 294 kts 249°
2026-05-08 09:03 51.25977 1.07632 11959 ft 294 kts 249°
2026-05-08 09:03 51.25242 1.04610 11889 ft 291 kts 248°
2026-05-08 09:03 51.24503 1.01595 11807 ft 293 kts 248°
2026-05-08 09:03 51.23758 0.98576 11736 ft 293 kts 248°
2026-05-08 09:04 51.23009 0.95556 11660 ft 292 kts 248°
2026-05-08 09:04 51.22264 0.92558 11557 ft 289 kts 248°
2026-05-08 09:04 51.21524 0.89589 11472 ft 288 kts 248°
2026-05-08 09:04 51.20779 0.86619 11340 ft 288 kts 248°
2026-05-08 09:05 51.20039 0.83665 11102 ft 287 kts 248°
2026-05-08 09:05 51.19295 0.80718 10856 ft 285 kts 248°
2026-05-08 09:05 51.18568 0.77786 10612 ft 284 kts 248°
2026-05-08 09:05 51.17832 0.74860 10395 ft 284 kts 248°
2026-05-08 09:06 51.17101 0.71959 10242 ft 282 kts 248°
2026-05-08 09:06 51.16372 0.69080 10096 ft 279 kts 248°
2026-05-08 09:06 51.15652 0.66216 9963 ft 278 kts 248°
2026-05-08 09:06 51.14936 0.63370 9828 ft 277 kts 248°
2026-05-08 09:07 51.14215 0.60513 9676 ft 277 kts 248°
2026-05-08 09:07 51.13497 0.57674 9498 ft 277 kts 248°
2026-05-08 09:07 51.12784 0.54858 9203 ft 271 kts 248°
2026-05-08 09:07 51.12082 0.52093 8890 ft 266 kts 248°
2026-05-08 09:08 51.11394 0.49380 8563 ft 262 kts 248°
2026-05-08 09:08 51.10717 0.46716 8235 ft 257 kts 246°
2026-05-08 09:08 51.10050 0.44098 7924 ft 253 kts 246°
2026-05-08 09:08 51.09395 0.41532 7625 ft 249 kts 246°
2026-05-08 09:09 51.08733 0.38979 7330 ft 248 kts 245°
2026-05-08 09:09 51.08080 0.36430 7018 ft 248 kts 246°
2026-05-08 09:09 51.07432 0.33892 6713 ft 248 kts 246°
2026-05-08 09:09 51.06786 0.31361 6400 ft 248 kts 246°
2026-05-08 09:10 51.06137 0.28821 6066 ft 247 kts 246°
2026-05-08 09:10 51.05489 0.26295 5742 ft 246 kts 245°
2026-05-08 09:10 51.04843 0.23781 5432 ft 246 kts 246°
2026-05-08 09:10 51.04202 0.21111 5257 ft 265 kts 251°
2026-05-08 09:11 51.03767 0.18258 5159 ft 266 kts 257°
2026-05-08 09:11 51.03432 0.15359 5078 ft 266 kts 257°
2026-05-08 09:11 51.03111 0.12464 5012 ft 266 kts 258°
2026-05-08 09:11 51.02838 0.09555 4931 ft 266 kts 261°
2026-05-08 09:12 51.02597 0.06638 4853 ft 267 kts 261°
2026-05-08 09:12 51.02368 0.03729 4780 ft 260 kts 261°
2026-05-08 09:12 51.02129 0.00838 4707 ft 267 kts 260°
2026-05-08 09:12 51.01897 -0.02081 4668 ft 266 kts 260°
2026-05-08 09:13 51.01677 -0.05000 4579 ft 266 kts 261°
2026-05-08 09:13 51.01460 -0.07920 4502 ft 266 kts 261°
2026-05-08 09:13 51.01241 -0.10839 4422 ft 266 kts 261°
2026-05-08 09:13 51.01033 -0.13594 4343 ft 265 kts 261°
2026-05-08 09:14 51.00813 -0.16504 4258 ft 265 kts 261°
2026-05-08 09:14 51.00593 -0.19415 4179 ft 266 kts 261°
2026-05-08 09:14 51.00741 -0.22337 4087 ft 270 kts 284°
2026-05-08 09:14 51.01388 -0.25143 4017 ft 270 kts 290°
2026-05-08 09:15 51.02108 -0.27905 3936 ft 270 kts 291°
2026-05-08 09:15 51.02812 -0.30563 3856 ft 253 kts 291°
2026-05-08 09:15 51.03479 -0.33062 3749 ft 238 kts 291°
2026-05-08 09:15 51.04125 -0.35475 3655 ft 237 kts 291°
2026-05-08 09:16 51.04765 -0.37886 3571 ft 237 kts 291°
2026-05-08 09:16 51.05504 -0.40222 3481 ft 239 kts 308°
2026-05-08 09:16 51.06707 -0.42057 3406 ft 240 kts 320°
2026-05-08 09:16 51.07978 -0.43682 3327 ft 229 kts 323°
2026-05-08 09:17 51.09435 -0.44644 3231 ft 228 kts 355°
2026-05-08 09:17 51.10945 -0.44310 3134 ft 215 kts 31°
2026-05-08 09:17 51.11891 -0.42762 3017 ft 184 kts 71°
2026-05-08 09:17 51.12086 -0.40858 2814 ft 168 kts 90°
2026-05-08 09:18 51.12169 -0.39051 2584 ft 159 kts 88°
2026-05-08 09:18 51.12324 -0.37298 2361 ft 160 kts 83°
2026-05-08 09:18 51.12532 -0.35603 2139 ft 161 kts 82°